Hill Air Force Base, UT

4:57 AM MDT on September 26, 2016 (GMT -0600)
Hill Air Force Base

Weather History for KHIF - May, 2014

Change the Weather History Date:

Tuesday, May 13, 2014

  Actual Average Record
Temperature  
Mean Temperature 48 °F -  
Max Temperature 58 °F 66 °F 88 °F (2013)
Min Temperature 37 °F 45 °F 35 °F (2008)
Degree Days  
Heating Degree Days 18    
Moisture  
Dew Point 26 °F    
Average Humidity 43    
Maximum Humidity 71    
Minimum Humidity 27    
Precipitation  
Precipitation 0.00 in - - ()
Sea Level Pressure  
Sea Level Pressure 30.40 in    
Wind  
Wind Speed 7 mph (ENE)    
Max Wind Speed 16 mph    
Max Gust Speed 17 mph    
Visibility 10 miles    
Events      
Averages and records for this station are not official NWS values.
T = Trace of Precipitation, MM = Missing Value Source: NWS Daily Summary

Daily Weather History Graph

Daily Weather History Graph

Search for Another Location

Airport or City:

Trip Planner

Search our weather history database for the weather conditions in past years. The results will help you decide how hot, cold, wet, or windy it might be!

Date:

Astronomy

May. 13, 2014 Rise Set
Actual Time 6:11 AM MDT 8:37 PM MDT
Civil Twilight 5:40 AM MDT 9:08 PM MDT
Nautical Twilight 5:01 AM MDT 9:47 PM MDT
Astronomical Twilight 4:19 AM MDT 10:30 PM MDT
Moon 7:42 PM MDT (5/13) 5:31 AM MDT (5/13)
Length of Visible Light 15h 28m
Length of Day
14h 25m
Waxing Gibbous, 99% of the Moon is Illuminated
May 13
Waxing Gibbous
May 14
Full
May 21
Last Quarter
May 28
New
Jun 5
First Quarter

Hourly Weather History & Observations

Time (MDT) Temp. Windchill Dew Point Humidity Pressure Visibility Wind Dir Wind Speed Gust Speed Precip Events Conditions
12:58 AM 43.0 °F 41.3 °F 28.2 °F 56% 30.34 in 10.0 mi North 3.5 mph - N/A   Clear
1:58 AM 38.7 °F - 29.8 °F 71% 30.38 in 10.0 mi Calm Calm - N/A   Clear
2:58 AM 39.2 °F 30.5 °F 28.8 °F 66% 30.38 in 10.0 mi East 16.1 mph - N/A   Clear
3:58 AM 38.1 °F 29.8 °F 28.4 °F 68% 30.40 in 10.0 mi East 13.8 mph - N/A   Clear
4:58 AM 37.9 °F 29.2 °F 28.0 °F 68% 30.42 in 10.0 mi ESE 15.0 mph - N/A   Clear
5:58 AM 37.8 °F 29.8 °F 27.1 °F 66% 30.42 in 10.0 mi East 12.7 mph 17.3 mph N/A   Clear
9:58 AM 47.7 °F - 28.9 °F 48% 30.46 in 10.0 mi East 11.5 mph - N/A   Clear
11:58 AM 52.5 °F - 23.4 °F 32% 30.44 in 10.0 mi Variable 3.5 mph - N/A   Clear
12:58 PM 54.0 °F - 23.5 °F 31% 30.45 in 10.0 mi Variable 4.6 mph - N/A   Clear
1:58 PM 55.8 °F - 30.0 °F 37% 30.44 in 10.0 mi WNW 12.7 mph - N/A   Partly Cloudy
2:58 PM 57.4 °F - 26.1 °F 30% 30.44 in 10.0 mi NW 8.1 mph 17.3 mph N/A   Scattered Clouds
3:58 PM 57.7 °F - 23.5 °F 27% 30.42 in 10.0 mi Variable 2.3 mph - N/A   Clear
4:58 PM 58.3 °F - 26.2 °F 29% 30.40 in 10.0 mi WNW 6.9 mph - N/A   Clear
5:58 PM 57.7 °F - 23.7 °F 27% 30.40 in 10.0 mi WNW 5.8 mph - N/A   Clear
6:58 PM 55.6 °F - 24.3 °F 30% 30.38 in 10.0 mi West 4.6 mph - N/A   Clear
7:58 PM 55.8 °F - 23.2 °F 28% 30.38 in 10.0 mi West 2.3 mph - N/A   Clear
8:58 PM 53.1 °F - 22.1 °F 30% 30.37 in 10.0 mi East 2.3 mph - N/A   Clear
9:58 PM 49.5 °F - 25.7 °F 40% 30.37 in 10.0 mi ESE 4.6 mph - N/A   Clear
10:58 PM 47.1 °F - 23.2 °F 39% 30.40 in 10.0 mi ESE 10.4 mph - N/A   Clear
11:58 PM 46.0 °F 41.0 °F 24.1 °F 42% 30.39 in 10.0 mi East 10.4 mph - N/A   Clear